FW5790 Weather Reports


Display with metric or nautical units.
time (UTC)temp
F
wind
direction
speed
MPH
gust
MPH
rain 1hr
in
rain 24hr
in
rain mn
in
humidity
%
barometer
mb
20260903203058 91 0 0.0 1.0 0.00 0.00 0.00 66 1016.3
20260903201604 92 140 0.0 4.0 0.00 0.00 0.00 62 1016.5
20260903200059 91 275 0.0 2.0 0.00 0.00 0.00 62 1016.7
20260903194556 91 131 0.0 1.0 0.00 0.00 0.00 66 1016.8
20260903193108 93 131 0.0 0.0 0.00 0.00 0.00 62 1017.0
20260903191558 95 0 0.0 0.0 0.00 0.00 0.00 60 1017.1
20260903190053 95 130 0.0 1.0 0.00 0.00 0.00 58 1017.4
20260903184606 94 0 0.0 1.0 0.00 0.00 0.00 61 1017.3
20260903183106 93 0 0.0 0.0 0.00 0.00 0.00 63 1017.5
20260903181559 93 0 0.0 0.0 0.00 0.00 0.00 65 1017.6
20260903180109 94 153 0.0 1.0 0.00 0.00 0.00 59 1017.8
20260903174613 95 153 0.0 1.0 0.00 0.00 0.00 60 1017.9
20260903173107 95 155 0.0 1.0 0.00 0.00 0.00 60 1018.1
20260903171604 95 169 0.0 1.0 0.00 0.00 0.00 62 1018.1
20260903170108 94 136 0.0 1.0 0.00 0.00 0.00 64 1018.3
20260903164604 94 124 0.0 1.0 0.00 0.00 0.00 61 1018.4
20260903163102 93 123 0.0 2.0 0.00 0.00 0.00 61 1018.6
20260903161558 93 141 0.0 1.0 0.00 0.00 0.00 62 1018.7
20260903160053 92 0 0.0 1.0 0.00 0.00 0.00 66 1018.6
20260903154553 92 110 0.0 1.0 0.00 0.00 0.00 68 1018.7
20260903153100 91 0 0.0 2.0 0.00 0.00 0.00 65 1018.7
20260903151558 90 0 0.0 0.0 0.00 0.00 0.00 68 1018.5
20260903150057 90 0 0.0 0.0 0.00 0.00 0.00 69 1018.7
20260903144558 89 0 0.0 0.0 0.00 0.00 0.00 71 1018.6
20260903143057 88 0 0.0 0.0 0.00 0.00 0.00 73 1018.7
20260903141601 88 0 0.0 0.0 0.00 0.00 0.00 73 1018.8
20260903140058 88 0 0.0 0.0 0.00 0.00 0.00 75 1018.8
20260903134556 87 0 0.0 1.0 0.00 0.00 0.00 78 1018.9
20260903133105 86 0 0.0 0.0 0.00 0.00 0.00 79 1019.0
20260903131601 84 0 0.0 1.0 0.00 0.00 0.00 79 1019.2
20260903130127 85 0 0.0 0.0 0.00 0.00 0.00 77 1019.2
20260903124558 83 0 0.0 0.0 0.00 0.00 0.00 81 1019.3
20260903123052 80 0 0.0 0.0 0.00 0.00 0.00 85 1019.2
20260903121559 77 0 0.0 0.0 0.00 0.00 0.00 88 1019.1
20260903120056 74 0 0.0 0.0 0.00 0.00 0.00 90 1019.1
20260903114554 73 0 0.0 0.0 0.00 0.00 0.00 91 1019.0
20260903113049 73 0 0.0 0.0 0.00 0.00 0.00 91 1018.9
20260903111603 72 0 0.0 0.0 0.00 0.00 0.00 91 1018.8
20260903110053 73 0 0.0 0.0 0.00 0.00 0.00 91 1018.7
20260903104551 73 0 0.0 0.0 0.00 0.00 0.00 91 1018.6
20260903103100 73 0 0.0 0.0 0.00 0.00 0.00 91 1018.5
20260903101602 73 0 0.0 0.0 0.00 0.00 0.00 91 1018.4
20260903100055 73 0 0.0 0.0 0.00 0.00 0.00 90 1018.6
20260903094604 73 0 0.0 0.0 0.00 0.00 0.00 90 1018.5
20260903093058 73 0 0.0 0.0 0.00 0.00 0.00 90 1018.5
20260903091555 74 0 0.0 0.0 0.00 0.00 0.00 90 1018.5
20260903084554 74 0 0.0 0.0 0.00 0.00 0.00 89 1018.1
20260903083100 74 0 0.0 0.0 0.00 0.00 0.00 89 1018.1
20260903081608 74 0 0.0 0.0 0.00 0.00 0.00 89 1018.0
20260903080058 75 0 0.0 0.0 0.00 0.00 0.00 89 1017.8
20260903074605 75 0 0.0 0.0 0.00 0.00 0.00 89 1017.9
20260903073113 75 0 0.0 0.0 0.00 0.00 0.00 89 1017.9
20260903071617 75 0 0.0 0.0 0.00 0.00 0.00 89 1017.6
20260903070056 75 0 0.0 0.0 0.00 0.00 0.00 88 1017.6
20260903064552 76 0 0.0 0.0 0.00 0.00 0.00 88 1017.7
20260903063100 76 0 0.0 0.0 0.00 0.00 0.00 88 1017.7
20260903061553 76 0 0.0 0.0 0.00 0.00 0.00 88 1017.9
20260903060119 76 0 0.0 0.0 0.00 0.00 0.00 88 1017.9
20260903054551 76 0 0.0 0.0 0.00 0.00 0.00 88 1017.8
20260903053058 76 0 0.0 0.0 0.00 0.00 0.00 88 1017.9
20260903051604 76 0 0.0 0.0 0.00 0.00 0.00 88 1017.8
20260903050055 76 0 0.0 0.0 0.00 0.00 0.00 88 1017.9
20260903044551 77 0 0.0 0.0 0.00 0.00 0.00 87 1017.8
20260903043058 77 0 0.0 0.0 0.00 0.00 0.00 87 1017.9
20260903041556 77 0 0.0 0.0 0.00 0.00 0.00 87 1017.7
20260903034550 78 0 0.0 0.0 0.00 0.00 0.00 86 1017.8
20260903033058 78 0 0.0 0.0 0.00 0.00 0.00 87 1017.6
20260903031552 78 0 0.0 0.0 0.00 0.00 0.00 86 1017.7
20260903030054 78 0 0.0 0.0 0.00 0.00 0.00 85 1017.7
20260903024558 79 0 0.0 0.0 0.00 0.00 0.00 85 1017.8
20260903023105 79 0 0.0 0.0 0.00 0.00 0.00 85 1017.7
20260903021558 79 0 0.0 0.0 0.00 0.00 0.00 84 1017.8
20260903020055 79 0 0.0 0.0 0.00 0.00 0.00 84 1017.7
20260903014607 80 0 0.0 0.0 0.00 0.00 0.00 83 1017.7
20260903013055 80 0 0.0 0.0 0.00 0.00 0.00 82 1017.7
20260903011553 81 0 0.0 0.0 0.00 0.00 0.00 81 1017.6
20260903004556 82 0 0.0 0.0 0.00 0.00 0.00 81 1017.4
20260903003059 83 0 0.0 0.0 0.00 0.00 0.00 79 1017.4
20260903001554 84 0 0.0 0.0 0.00 0.00 0.00 78 1017.4
20260902234625 86 0 0.0 0.0 0.00 0.00 0.00 73 1017.4
20260902233057 86 0 0.0 0.0 0.00 0.00 0.00 71 1017.4
20260902231612 87 0 0.0 0.0 0.00 0.00 0.00 70 1017.5
20260902230106 87 0 0.0 0.0 0.00 0.00 0.00 69 1017.6
20260902224552 88 0 0.0 0.0 0.00 0.00 0.00 68 1017.5
20260902223100 89 0 0.0 0.0 0.00 0.00 0.00 68 1017.5
20260902221554 89 0 0.0 0.0 0.00 0.00 0.00 66 1017.5
20260902220057 89 0 0.0 0.0 0.00 0.00 0.00 66 1017.7
20260902214614 90 0 0.0 0.0 0.00 0.00 0.00 67 1017.7
20260902213056 90 0 0.0 0.0 0.00 0.00 0.00 65 1017.6
20260902211556 90 0 0.0 0.0 0.00 0.00 0.00 67 1017.8
20260902210055 90 0 0.0 0.0 0.00 0.00 0.00 66 1018.0
20260902204553 91 0 0.0 0.0 0.00 0.00 0.00 64 1017.9